World > North America > United States > Arizona
Hourly Weather in Dos Cabezas, ArizonaDos Cabezas, Arizona Hourly Weather

Dos Cabezas, AZ Hourly Weather

Hourly Weather Dos Cabezas, ArizonaHourly Weather in Dos Cabezas, AZ
Lat: 32.18N, Lon: 109.61W  ICAO: KSAD
Web Search

Ads allow us to feed your daily addiction for the world's greatest weather information. We're determined to offer quality sponsors, in the least annoying way possible.

Feedback

Dos Cabezas Hourly Weather

36 Hour Weather Scroll   °F Click to change Dos Cabezas hourly weather to Imperial units.Click to change Dos Cabezas hourly weather to Metric units. °C
Currently, Clear, temperature is 69°F21°C, dew point 25°F-4°C, humidity 19%. Wind direction is WNW at 15 mph24 km/h with visibility of 10.00 mi16 km. Barometric pressure is 30.03 in1017 mb.

Oct 27
2:00 PM

Oct 27
3:00 PM

Oct 27
4:00 PM

Oct 27
5:00 PM

Oct 27
6:00 PM

Oct 27
7:00 PM

Oct 27
8:00 PM

Oct 27
9:00 PM

Oct 27
10:00 PM

Oct 27
11:00 PM

Oct 28
MIDNIGHT

Oct 28
1:00 AM

Oct 28
2:00 AM

Oct 28
3:00 AM

Oct 28
4:00 AM

Oct 28
5:00 AM

Oct 28
6:00 AM

Oct 28
7:00 AM

Oct 28
8:00 AM

Oct 28
9:00 AM

Oct 28
10:00 AM

Oct 28
11:00 AM

Oct 28
NOON

Oct 28
1:00 PM

Oct 28
2:00 PM

Oct 28
3:00 PM

Oct 28
4:00 PM

Oct 28
5:00 PM

Oct 28
6:00 PM

Oct 28
7:00 PM

Oct 28
8:00 PM

Oct 28
9:00 PM

Oct 28
10:00 PM

Oct 28
11:00 PM

Oct 29
MIDNIGHT

Oct 29
1:00 AM
Clear Clear Clear Clear Clear Clear Clear Clear Clear Clear Clear Clear Clear Clear Clear Clear Clear Clear Clear Clear Clear Clear Clear Clear Clear Clear Clear Clear Clear Clear Clear Clear Clear Clear Clear Clear
Clear Clear Clear Clear Clear Clear Clear Clear Clear Clear Clear Clear Clear Clear Clear Clear Clear Clear Clear Clear Clear Clear Clear Clear Clear Clear Clear Clear Clear Clear Clear Clear Clear Clear Clear Clear
66°F19°C 68°F20°C 68°F20°C 68°F20°C 68°F20°C 65°F18°C 61°F16°C 58°F14°C 57°F14°C 55°F13°C 54°F12°C 53°F12°C 52°F11°C 51°F11°C 50°F10°C 50°F10°C 49°F9°C 50°F10°C 50°F10°C 51°F11°C 55°F13°C 60°F16°C 64°F18°C 67°F19°C 70°F21°C 73°F23°C 74°F23°C 74°F23°C 75°F24°C 71°F22°C 67°F19°C 63°F17°C 62°F17°C 60°F16°C 59°F15°C 58°F14°C
- - - - - - - - - - - - - - - - - - - - - - - - - - - - - - - - - - - -
0% 0% 0% 0% 0% 0% 0% 0% 0% 0% 0% 0% 0% 0% 0% 0% 0% 0% 0% 0% 0% 0% 0% 0% 0% 0% 0% 0% 0% 0% 0% 0% 0% 0% 0% 1%
25°F-4°C 24°F-4°C 23°F-5°C 23°F-5°C 22°F-6°C 22°F-6°C 23°F-5°C 23°F-5°C 23°F-5°C 23°F-5°C 23°F-5°C 23°F-5°C 23°F-5°C 23°F-5°C 23°F-5°C 24°F-4°C 24°F-4°C 25°F-4°C 25°F-4°C 26°F-3°C 26°F-3°C 27°F-3°C 27°F-3°C 27°F-3°C 27°F-3°C 27°F-3°C 27°F-3°C 26°F-3°C 26°F-3°C 27°F-3°C 27°F-3°C 28°F-2°C 28°F-2°C 28°F-2°C 28°F-2°C 28°F-2°C
21% 19% 18% 18% 17% 19% 23% 26% 27% 29% 30% 31% 32% 33% 34% 36% 37% 37% 37% 38% 32% 28% 25% 22% 20% 18% 17% 17% 16% 19% 22% 26% 27% 29% 30% 32%
NW NW NW NW NW NW NW NW NW NW NW W SW SSE SSE SE SE SE SE SE SSE SSE S S S SSE SSE SSE SSE SSE ESE ENE E ESE SE SE
16 mph 16 mph 16 mph 10 mph 10 mph 10 mph 9 mph 9 mph 9 mph 7 mph 7 mph 7 mph 5 mph 5 mph 5 mph 5 mph 5 mph 5 mph 5 mph 5 mph 5 mph 6 mph 6 mph 6 mph 5 mph 5 mph 5 mph 6 mph 6 mph 6 mph 5 mph 5 mph 5 mph 4 mph 4 mph 4 mph
10 mi16 km 10 mi16 km 10 mi16 km 10 mi16 km 10 mi16 km 10 mi16 km 10 mi16 km 10 mi16 km 10 mi16 km 10 mi16 km 10 mi16 km 10 mi16 km 10 mi16 km 10 mi16 km 10 mi16 km 10 mi16 km 10 mi16 km 10 mi16 km 10 mi16 km 10 mi16 km 10 mi16 km 10 mi16 km 10 mi16 km 10 mi16 km 10 mi16 km 10 mi16 km 10 mi16 km 10 mi16 km 10 mi16 km 10 mi16 km 10 mi16 km 10 mi16 km 10 mi16 km 10 mi16 km 10 mi16 km 10 mi16 km
Hour (MDT)
Weather
Clouds
Temperature
Precip. Type
POP
Dewpoint
Humidity
Wind Direction
Wind Speed
Visibility
POP = Probability of Precipitation. ** Indicates missing data/values from model statistics.

24 Hour Forecast

Today - Sunny. Highs 59 to 67.
Tonight - Mostly clear. Lows 38 to 44.

48 Hour Forecast API Feed


Wed, Oct 27
1:00 pm

Wed, Oct 27
2:00 pm

Wed, Oct 27
3:00 pm

Wed, Oct 27
4:00 pm

Wed, Oct 27
5:00 pm

Wed, Oct 27
6:00 pm

Wed, Oct 27
7:00 pm

Wed, Oct 27
8:00 pm

Wed, Oct 27
9:00 pm

Wed, Oct 27
10:00 pm

Wed, Oct 27
11:00 pm

Thu, Oct 28
Midnight

Thu, Oct 28
1:00 am

Thu, Oct 28
2:00 am

Thu, Oct 28
3:00 am

Thu, Oct 28
4:00 am

Thu, Oct 28
5:00 am

Thu, Oct 28
6:00 am

Thu, Oct 28
7:00 am

Thu, Oct 28
8:00 am

Thu, Oct 28
9:00 am

Thu, Oct 28
10:00 am

Thu, Oct 28
11:00 am

Thu, Oct 28
Noon

Thu, Oct 28
1:00 pm

Thu, Oct 28
2:00 pm

Thu, Oct 28
3:00 pm

Thu, Oct 28
4:00 pm

Thu, Oct 28
5:00 pm

Thu, Oct 28
6:00 pm

Thu, Oct 28
7:00 pm

Thu, Oct 28
8:00 pm

Thu, Oct 28
9:00 pm

Thu, Oct 28
10:00 pm

Thu, Oct 28
11:00 pm

Fri, Oct 29
Midnight

Fri, Oct 29
1:00 am

Fri, Oct 29
2:00 am

Fri, Oct 29
3:00 am

Fri, Oct 29
4:00 am

Fri, Oct 29
5:00 am

Fri, Oct 29
6:00 am

Fri, Oct 29
7:00 am

Fri, Oct 29
8:00 am

Fri, Oct 29
9:00 am

Fri, Oct 29
10:00 am

Fri, Oct 29
11:00 am

Fri, Oct 29
Noon
SunnySunnySunnySunnySunnyClearClearClearClearClearClearClearClearClearClearClearClearClearSunnySunnySunnySunnySunnySunnySunnySunnySunnySunnySunnyClearClearClearClearClearClearClearClearClearClearClearClearClearSunnySunnySunnySunnySunnySunny
Sunny Sunny Sunny Sunny Sunny Clear Clear Clear Clear Clear Clear Clear Clear Clear Clear Clear Clear Clear Sunny Sunny Sunny Sunny Sunny Sunny Sunny Sunny Sunny Sunny Sunny Clear Clear Clear Clear Clear Clear Clear Clear Clear Clear Clear Clear Clear Sunny Sunny Sunny Sunny Sunny Sunny
64°F
18°C
66°F
19°C
69°F
20°C
70°F
21°C
70°F
21°C
67°F
20°C
61°F
16°C
56°F
13°C
54°F
12°C
53°F
12°C
52°F
11°C
51°F
11°C
50°F
10°C
50°F
10°C
48°F
9°C
48°F
9°C
47°F
9°C
47°F
8°C
47°F
8°C
48°F
9°C
53°F
12°C
59°F
15°C
64°F
18°C
67°F
20°C
70°F
21°C
72°F
22°C
74°F
23°C
74°F
24°C
74°F
23°C
70°F
21°C
63°F
17°C
59°F
15°C
58°F
14°C
57°F
14°C
56°F
14°C
56°F
13°C
55°F
13°C
55°F
13°C
54°F
12°C
53°F
12°C
53°F
12°C
52°F
11°C
51°F
11°C
51°F
11°C
56°F
14°C
62°F
17°C
67°F
19°C
70°F
21°C
20°F
-7°C
19°F
-7°C
19°F
-7°C
20°F
-7°C
21°F
-6°C
26°F
-4°C
24°F
-4°C
22°F
-5°C
22°F
-6°C
22°F
-6°C
22°F
-6°C
21°F
-6°C
21°F
-6°C
22°F
-6°C
21°F
-6°C
20°F
-7°C
20°F
-7°C
20°F
-7°C
20°F
-7°C
20°F
-7°C
19°F
-7°C
21°F
-6°C
22°F
-5°C
23°F
-5°C
24°F
-5°C
25°F
-4°C
26°F
-4°C
26°F
-3°C
27°F
-3°C
31°F
-0°C
27°F
-3°C
24°F
-5°C
24°F
-5°C
23°F
-5°C
23°F
-5°C
22°F
-6°C
22°F
-6°C
21°F
-6°C
21°F
-6°C
21°F
-6°C
20°F
-6°C
20°F
-7°C
20°F
-7°C
21°F
-6°C
22°F
-6°C
23°F
-5°C
25°F
-4°C
26°F
-4°C
30.06 in
1018 mb
30.03 in
1017 mb
30 in
1016 mb
29.97 in
1015 mb
29.97 in
1015 mb
29.97 in
1015 mb
30 in
1016 mb
30.03 in
1017 mb
30.06 in
1018 mb
30.06 in
1018 mb
30.06 in
1018 mb
30.06 in
1018 mb
30.06 in
1018 mb
30.06 in
1018 mb
30.06 in
1018 mb
30.03 in
1017 mb
30.06 in
1018 mb
30.06 in
1018 mb
30.06 in
1018 mb
30.09 in
1019 mb
30.09 in
1019 mb
30.09 in
1019 mb
30.06 in
1018 mb
30.06 in
1018 mb
30 in
1016 mb
29.97 in
1015 mb
29.97 in
1015 mb
29.94 in
1014 mb
29.94 in
1014 mb
29.94 in
1014 mb
29.97 in
1015 mb
30 in
1016 mb
30 in
1016 mb
30 in
1016 mb
30 in
1016 mb
30 in
1016 mb
30 in
1016 mb
30 in
1016 mb
30 in
1016 mb
30 in
1016 mb
30 in
1016 mb
30 in
1016 mb
30.03 in
1017 mb
30.03 in
1017 mb
30.06 in
1018 mb
30.06 in
1018 mb
30.03 in
1017 mb
30 in
1016 mb
18%16%15%15%16%21%24%27%28%29%30%30%32%33%34%33%33%34%33%33%26%23%20%18%17%17%17%17%17%23%25%26%27%26%26%27%27%27%27%28%28%28%29%30%26%22%20%19%
NWNNWNWNWNWWNWWNWWNWWNWWNWWNWWNWNWNNWNNEENEENENENENENEENEENEENEENENENENENENENENENENEENENEENENENENENENENENENEENEENEENE
3 mph
5 km/h
4 mph
6 km/h
5 mph
8 km/h
6 mph
10 km/h
8 mph
12 km/h
8 mph
12 km/h
8 mph
13 km/h
8 mph
12 km/h
6 mph
10 km/h
6 mph
10 km/h
6 mph
9 km/h
5 mph
8 km/h
4 mph
6 km/h
3 mph
5 km/h
2 mph
3 km/h
3 mph
5 km/h
3 mph
5 km/h
3 mph
5 km/h
4 mph
6 km/h
4 mph
6 km/h
4 mph
6 km/h
5 mph
8 km/h
5 mph
8 km/h
5 mph
9 km/h
5 mph
9 km/h
5 mph
8 km/h
6 mph
9 km/h
5 mph
8 km/h
4 mph
7 km/h
4 mph
6 km/h
4 mph
6 km/h
4 mph
6 km/h
3 mph
5 km/h
3 mph
5 km/h
4 mph
6 km/h
3 mph
5 km/h
4 mph
6 km/h
4 mph
6 km/h
4 mph
7 km/h
4 mph
7 km/h
5 mph
8 km/h
5 mph
8 km/h
5 mph
8 km/h
5 mph
8 km/h
5 mph
8 km/h
5 mph
9 km/h
6 mph
9 km/h
6 mph
9 km/h
0%0%0%0%0%0%0%0%0%0%0%0%0%0%0%0%0%0%0%0%0%0%0%0%0%0%0%0%0%0%0%0%0%0%0%0%0%0%0%0%0%0%0%0%0%0%0%0%
6 mi
10 km
6 mi
10 km
6 mi
10 km
6 mi
10 km
6 mi
10 km
6 mi
10 km
6 mi
10 km
6 mi
10 km
6 mi
10 km
6 mi
10 km
6 mi
10 km
6 mi
10 km
6 mi
10 km
6 mi
10 km
6 mi
10 km
6 mi
10 km
6 mi
10 km
6 mi
10 km
6 mi
10 km
6 mi
10 km
6 mi
10 km
6 mi
10 km
6 mi
10 km
6 mi
10 km
6 mi
10 km
6 mi
10 km
6 mi
10 km
6 mi
10 km
6 mi
10 km
6 mi
10 km
6 mi
10 km
6 mi
10 km
6 mi
10 km
6 mi
10 km
6 mi
10 km
6 mi
10 km
6 mi
10 km
6 mi
10 km
6 mi
10 km
6 mi
10 km
6 mi
10 km
6 mi
10 km
6 mi
10 km
6 mi
10 km
6 mi
10 km
6 mi
10 km
6 mi
10 km
6 mi
10 km

Day/Time
Weather
Condition
Temperature
Dew Point
Pressure
Humidity
Wind Direction
Wind Speed
Prob Precip %
Visibility
Prob Precip % = Probability of Precipitation.